Über Starlink 3004
Group: 3 satellites
Beschreibung wird geladen...
Live-Position
3D-Globus wird geladen...
Nächste Überflüge
Höhenverlauf
Altitude vs Time
uPlot chart will show altitude changes over time
Zweizeiliger Elementsatz
1 48880U 21059B 25355.10572976 .00000545 00000-0 47034-4 0 9998
2 48880 97.6635 117.7810 0001449 204.7589 155.3566 15.01262879247010
Epoch: 21. Dez. 2025 •
Age: 9 hours
Aktueller Status
Höhe 573.7 km
Geschwindigkeit 7.57 km/s
Subsatellitenpunkt -31.11°S,
31.12°E
Startdatum 30. Juni 2021
Alter 4.4 years
Typ internet
Technische Details
Klassifizierung Payload
Masse 260.00 kg
Trockenmasse 248.00 kg
Gesamtmasse 260.00 kg
Länge 0.20 m
Durchmesser 2.80 m
Spannweite 9.00 m
Form Box + pan
Hersteller SPXS
Bus-Typ Starlink
Phasenstatus In Orbit
Besitzer/Staat SPXS/US
Große Konstellationen
Loading constellations...